Wind_Speed
27 26 26 26 26 26 26 25 25 24 24 24 24 23 23 24 24 23 22 21 19 18 17 17 17 16 15 14 13 13 12 12 13 13 13 13 13 12 12 12 12 12 13 13 12 11 11 10 10 9 8 7 6 5 5 4 4 4 4 4 4 4 4 4 3 3 6 7 7 9 10 11 12 14 15 15 16 17 19 20 21 21 19 17 17
26 26 26 27 27 27 26 26 26 25 25 25 25 24 24 24 24 24 24 23 21 19 17 18 18 17 16 15 14 14 13 13 13 14 14 13 13 13 13 13 13 13 12 12 12 12 11 11 10 10 9 8 7 7 7 7 6 6 6 6 7 7 7 6 6 5 6 8 9 10 11 11 12 14 15 16 16 17 18 18 17 17 16 15 16
25 25 26 27 27 27 28 27 27 27 27 26 26 26 25 24 24 25 24 24 23 20 18 18 19 18 17 16 15 14 14 14 14 14 14 14 14 14 14 14 14 14 13 13 13 12 12 12 11 11 10 10 10 9 9 9 8 8 9 9 9 9 10 9 8 8 8 9 10 11 11 12 13 15 16 16 16 17 16 14 13 13 13 13 15
25 25 25 26 27 28 29 29 28 28 28 27 26 26 25 25 25 25 25 25 24 22 20 19 19 19 18 17 16 14 14 14 15 15 15 15 15 15 15 16 16 16 15 15 14 14 14 13 12 12 12 12 12 12 11 11 11 11 11 11 11 11 12 11 10 10 9 9 10 11 12 13 14 15 16 16 16 16 15 14 13 12 12 14 16
25 25 24 25 27 28 29 29 30 30 29 28 27 26 25 26 25 25 25 25 24 24 22 21 20 20 18 16 16 15 13 14 14 15 15 16 15 16 16 16 17 17 17 17 17 16 16 15 15 15 15 15 14 14 14 14 14 13 13 12 12 12 12 11 11 10 10 9 10 12 14 14 14 15 16 16 15 15 14 14 13 12 12 16 19
24 24 25 25 26 26 28 29 30 30 29 28 27 26 26 26 25 25 25 24 24 24 23 22 22 21 18 16 16 16 14 14 15 15 16 16 17 17 16 16 16 17 18 19 19 19 18 17 17 18 18 17 16 16 16 17 17 16 15 15 14 14 14 13 13 13 13 13 13 14 14 14 14 14 15 16 15 15 14 12 11 12 14 17 21
24 24 24 25 26 25 26 27 28 29 29 28 28 27 27 26 25 25 24 24 24 24 24 23 22 22 20 18 17 16 16 15 15 16 17 17 17 17 17 16 16 16 18 19 19 20 20 19 19 19 19 18 18 18 18 19 18 18 17 17 16 16 16 15 15 15 14 14 14 14 14 13 13 13 13 14 15 15 15 13 11 12 16 19 21
25 23 24 24 25 24 24 25 26 27 28 28 28 28 28 26 25 25 24 24 24 24 23 23 22 23 22 20 18 18 17 16 16 17 17 17 17 17 17 16 16 16 16 17 18 19 19 19 19 19 19 19 18 19 19 20 19 19 18 18 18 18 17 16 16 15 15 15 14 15 14 12 13 13 13 14 15 14 13 13 13 15 17 20 22
27 25 24 24 23 23 23 24 25 26 28 29 29 29 29 28 26 25 25 24 24 24 23 23 23 23 23 22 21 20 20 18 17 16 17 17 16 16 16 16 15 15 15 16 17 17 17 17 17 17 17 17 18 18 19 19 19 18 17 17 17 17 17 16 16 16 15 15 15 15 13 12 12 13 13 14 15 12 11 13 15 18 19 21 23
27 27 25 24 23 24 24 24 25 26 27 28 29 29 29 29 28 27 26 25 24 24 24 23 23 24 24 23 23 22 21 20 18 16 16 16 16 15 16 16 15 15 15 15 16 16 16 16 16 15 15 15 16 16 16 16 17 17 16 16 16 16 16 16 15 15 15 15 15 14 13 12 12 13 13 14 13 11 11 14 16 18 20 22 24
26 28 28 25 24 25 25 25 25 25 26 27 28 28 29 29 29 28 27 26 25 25 25 24 24 23 24 25 24 23 22 20 19 17 17 17 17 17 17 16 16 16 16 16 16 16 16 16 15 15 15 14 14 14 15 15 15 16 16 16 16 16 16 15 15 15 15 15 15 14 13 12 11 12 13 13 11 11 12 14 16 18 21 22 24
24 27 29 28 26 26 26 25 25 25 25 26 27 28 28 29 30 29 28 27 27 26 26 25 24 23 24 25 26 25 23 21 20 19 19 18 18 18 18 18 18 18 18 18 17 16 16 16 16 16 15 14 13 13 13 13 14 15 16 16 17 16 16 15 14 14 15 15 15 14 14 14 12 11 13 12 10 11 12 14 16 18 20 22 25
24 25 29 30 29 28 27 26 26 26 25 25 26 27 28 29 30 30 28 28 28 28 27 26 25 24 25 25 25 25 24 23 21 20 20 20 20 20 20 20 20 20 20 19 19 18 18 17 17 16 15 15 15 14 13 12 12 14 15 17 17 17 16 16 15 15 15 15 15 13 13 15 13 11 12 12 11 12 13 14 15 17 19 22 25
24 25 27 30 31 30 28 27 27 27 26 26 26 27 28 29 29 29 29 28 28 29 29 28 27 25 25 25 25 25 25 24 23 21 21 22 22 22 22 22 23 22 22 21 21 21 20 19 19 18 17 16 16 15 14 12 12 13 14 16 17 17 17 17 16 16 16 16 16 14 13 15 14 12 11 12 12 13 14 15 16 18 20 22 25
25 25 26 29 31 31 30 29 28 28 28 27 27 27 27 28 29 29 29 29 28 28 29 29 29 27 26 25 25 24 25 24 24 23 23 23 23 23 24 25 25 25 24 23 23 22 21 21 20 19 18 17 16 16 15 14 13 13 14 15 15 16 17 17 17 17 17 17 17 15 14 14 14 13 13 14 14 15 15 16 17 18 20 22 25
27 25 25 28 30 31 31 30 29 29 28 29 28 28 27 28 28 29 29 28 28 28 28 29 30 29 28 27 26 26 25 25 25 25 24 24 23 24 25 25 26 26 25 25 24 22 22 22 21 20 19 18 17 17 17 17 17 16 15 15 15 16 16 17 18 18 18 18 18 17 15 13 13 14 14 15 16 16 16 17 18 19 22 23 25
28 27 26 27 29 29 30 31 31 30 29 29 30 29 28 28 28 28 29 28 27 27 28 29 30 30 30 29 28 27 26 26 26 26 26 25 25 26 26 26 26 26 26 26 25 24 22 22 22 21 20 19 17 17 19 20 20 20 19 17 17 16 16 16 18 19 19 19 18 17 15 13 14 15 15 17 18 18 18 18 18 21 23 25 26
29 28 27 27 28 29 29 29 31 32 31 30 30 30 30 29 28 28 29 28 27 26 26 27 28 30 31 31 30 29 28 27 27 27 27 27 27 28 28 28 27 27 27 26 27 26 24 22 22 22 20 19 19 19 20 21 22 22 21 21 20 18 15 15 17 19 20 20 19 17 15 15 16 16 16 18 19 19 19 18 19 22 25 26 27
29 28 28 28 28 28 28 29 30 32 33 32 32 31 31 30 29 29 29 29 28 27 26 27 27 28 30 31 31 30 30 29 28 28 28 28 29 29 29 29 29 28 27 27 28 27 25 23 22 22 20 19 20 20 21 22 23 22 22 24 23 18 15 16 17 19 20 20 19 17 16 16 17 16 17 19 20 20 20 19 20 23 25 27 29
29 28 29 29 28 27 27 28 29 31 33 34 34 33 32 32 31 31 31 30 30 29 28 27 27 27 28 29 31 31 31 31 30 28 28 29 29 30 30 31 30 28 27 28 28 28 26 24 22 21 20 20 20 21 21 22 22 22 23 24 23 19 18 18 18 18 19 19 18 17 16 16 16 16 17 19 20 21 21 20 22 25 26 28 30
31 30 30 30 28 27 26 26 27 28 31 34 36 36 35 34 33 32 32 31 31 31 31 29 28 27 27 29 31 31 32 33 31 29 28 29 29 31 32 32 31 29 28 28 28 28 27 26 23 22 21 21 21 21 22 22 23 23 23 23 22 20 20 20 19 19 19 18 18 17 17 16 16 17 17 19 21 22 21 22 25 26 27 29 31
34 34 33 32 30 28 27 26 26 27 29 32 36 38 38 37 36 34 33 33 33 33 33 31 29 28 27 28 30 32 32 32 32 31 30 30 30 31 32 32 31 30 29 29 28 28 28 27 25 23 22 22 22 23 23 23 24 24 23 22 22 21 21 20 20 20 19 19 18 18 17 17 17 17 19 21 22 22 23 24 27 28 29 31 32
38 37 35 34 33 30 29 28 27 27 28 30 34 37 39 40 39 37 35 34 34 34 35 34 32 30 28 28 29 31 32 32 31 31 31 31 31 31 31 30 30 30 29 28 28 28 29 28 25 23 23 23 23 23 23 23 23 23 23 23 23 22 21 21 21 21 21 20 20 19 18 18 18 19 21 23 23 23 25 26 28 29 30 31 33
41 40 37 36 35 33 32 31 30 29 29 30 32 35 38 40 41 40 38 36 35 35 35 35 35 33 31 29 29 30 32 32 31 30 31 31 31 31 30 28 28 28 28 27 28 29 29 27 25 23 23 24 23 23 23 23 23 22 23 24 25 23 23 22 22 22 22 21 21 20 20 20 21 22 23 24 24 25 26 27 28 29 31 32 33
42 42 41 39 37 36 35 34 33 32 31 31 32 34 37 40 41 41 41 40 38 37 36 36 37 35 33 31 29 29 30 30 30 29 28 28 28 28 27 27 26 26 26 27 28 29 28 26 25 24 24 23 23 23 23 23 23 23 23 25 25 24 24 23 23 23 23 22 22 22 22 22 23 24 26 25 25 26 27 28 28 29 31 32 34
40 41 42 42 40 38 38 38 37 35 34 33 34 35 37 39 40 41 42 42 41 39 37 37 37 37 36 33 30 28 28 29 29 28 26 26 25 25 25 26 25 25 25 27 27 27 26 25 25 24 24 23 23 23 23 23 23 24 24 24 24 24 24 25 25 25 25 24 24 24 24 25 26 27 27 26 26 27 28 28 30 31 32 34 35
40 40 40 41 41 41 41 41 40 39 38 36 36 37 38 38 39 39 40 41 42 41 39 38 38 38 37 35 32 30 28 29 29 27 25 25 25 24 24 24 25 25 25 25 24 24 24 24 25 25 25 24 24 23 23 24 24 24 24 24 25 25 25 26 26 27 27 27 27 26 27 27 28 28 27 27 28 29 29 30 32 34 35 35 36
41 41 41 41 42 43 43 44 44 44 42 40 39 39 39 38 37 36 36 38 40 41 40 39 37 37 36 35 33 31 30 29 28 25 23 23 23 23 23 22 23 24 23 22 22 23 25 26 27 27 25 24 24 24 24 24 24 24 24 24 25 25 26 26 27 27 27 28 28 28 28 29 29 29 28 28 29 30 31 32 33 35 36 36 37
43 43 44 44 45 46 47 47 47 47 46 44 43 41 40 39 37 35 35 37 39 40 39 37 35 34 35 35 34 33 30 27 23 21 21 21 21 21 20 19 19 19 19 20 22 25 27 28 28 27 25 25 25 24 24 24 24 25 25 24 24 24 25 26 27 27 27 28 28 28 28 28 29 29 29 30 31 31 31 32 33 33 34 35 36
45 46 47 48 49 50 51 52 51 50 49 48 46 44 42 41 38 36 36 37 37 37 38 35 32 31 32 32 33 32 29 24 21 20 21 20 20 19 19 19 19 19 19 22 26 28 29 28 28 27 26 26 26 26 26 25 25 25 25 24 24 24 24 25 25 26 27 27 28 28 27 27 28 29 30 31 31 31 30 30 31 33 34 35 36
48 50 51 52 53 53 54 55 54 51 50 50 50 48 45 42 39 37 37 37 36 36 36 34 32 31 31 32 33 32 29 26 24 23 21 20 19 19 19 19 20 22 23 27 29 30 29 28 28 27 27 28 28 28 28 27 26 26 26 25 25 25 24 24 25 26 26 27 27 27 27 27 28 30 30 30 31 31 31 31 32 35 36 36 36
49 51 52 52 53 54 55 55 54 51 49 50 50 50 48 44 41 38 37 36 35 35 35 35 33 33 33 33 32 31 29 27 26 24 22 21 20 19 19 20 22 24 27 30 31 31 30 29 29 29 29 30 30 30 30 30 29 29 28 28 27 26 25 25 27 27 27 26 27 27 28 29 30 29 29 30 31 32 32 31 33 35 35 35 36
46 48 51 51 51 52 52 52 52 50 48 48 50 51 49 45 41 39 37 35 35 36 36 35 34 33 33 33 31 30 28 27 26 25 23 22 21 20 21 22 24 27 30 32 32 31 30 30 30 30 30 30 31 32 32 32 32 32 31 30 28 26 26 27 28 28 27 27 27 27 28 28 28 27 28 30 31 31 31 31 33 34 33 33 34
47 49 50 49 49 50 51 51 51 50 48 47 48 50 50 46 42 40 38 35 35 36 35 34 33 32 32 31 30 29 28 28 27 26 24 23 23 23 24 25 27 30 31 32 31 29 28 29 29 29 30 30 30 31 32 33 33 33 33 31 27 25 26 28 28 28 28 28 29 28 28 26 25 26 27 28 28 29 30 31 32 33 32 32 32
48 48 48 48 48 49 49 49 48 50 50 48 45 46 48 48 46 41 37 35 35 34 32 31 30 30 30 30 30 29 28 28 27 26 25 25 25 26 27 28 29 30 30 29 28 27 26 27 27 28 30 30 30 30 31 31 31 31 31 29 26 26 27 28 27 26 26 26 26 26 25 24 25 25 25 25 26 28 30 31 32 33 32 31 30
48 46 46 47 48 47 46 46 47 48 49 49 47 46 47 48 46 40 36 35 35 33 31 30 30 30 30 30 30 29 28 28 28 27 27 27 27 27 28 28 28 27 27 26 26 26 26 26 27 28 29 30 30 30 29 29 29 29 26 24 22 22 24 24 23 22 21 22 22 23 23 23 24 24 24 25 27 29 30 30 31 32 32 30 29
46 45 44 44 45 45 44 43 43 44 45 47 49 50 49 48 45 41 38 38 36 34 32 32 32 32 31 31 30 29 29 29 29 28 27 27 28 28 28 28 27 27 26 26 27 27 27 26 26 27 27 28 30 30 28 30 32 29 24 22 21 21 21 21 20 20 21 21 22 23 24 23 23 25 26 28 28 29 29 29 30 31 31 30 29
45 45 44 43 44 45 43 41 41 42 44 46 48 49 49 47 45 43 41 40 38 36 35 34 33 33 32 31 31 31 31 30 29 29 29 28 29 29 29 28 28 27 26 26 26 26 26 25 26 27 28 29 30 30 31 33 33 27 22 21 22 21 21 22 23 24 24 23 23 25 26 25 25 26 28 28 28 28 28 28 29 31 32 31 29
46 45 44 44 44 44 43 41 41 42 44 46 45 45 44 45 45 44 42 40 38 37 36 35 35 33 32 32 33 33 32 32 30 30 29 29 28 29 28 27 27 26 25 25 24 24 24 25 26 27 27 28 30 31 33 35 33 27 22 21 22 23 24 25 26 27 26 25 25 27 28 28 28 28 29 28 28 29 29 29 30 31 32 31 29
47 46 45 43 43 43 43 42 42 41 42 44 43 42 42 43 43 43 42 39 37 38 37 36 35 34 33 35 35 34 33 32 31 30 30 29 29 29 28 26 26 25 24 24 23 23 23 24 25 25 25 27 29 30 32 34 33 29 24 22 22 25 26 25 25 26 27 27 29 30 31 31 31 30 29 29 29 29 30 30 30 31 32 31 29
45 46 46 44 43 43 43 42 41 40 41 42 42 42 43 44 42 42 42 39 36 37 38 37 36 36 36 37 36 35 33 32 31 30 30 30 29 29 28 27 26 25 24 24 24 24 25 26 26 27 27 28 30 31 32 33 32 29 26 24 23 25 27 26 25 27 29 30 31 33 34 34 33 32 30 30 30 30 30 30 29 30 30 28 26
37 41 42 43 42 42 41 41 40 39 39 40 40 40 41 42 42 43 43 40 37 37 38 38 37 38 38 38 36 35 33 32 30 30 30 29 29 29 28 27 25 24 24 25 25 26 26 27 28 28 29 30 31 32 33 33 30 28 28 27 26 25 27 27 28 30 32 33 34 35 35 35 33 32 31 31 31 31 31 29 28 27 26 25 23
28 33 36 39 41 40 39 39 40 39 38 38 38 38 38 40 41 41 41 39 38 39 39 39 39 38 38 37 35 33 32 31 30 29 29 29 29 28 27 26 25 25 25 26 26 27 27 28 29 29 30 30 31 32 32 31 29 28 30 30 29 28 27 27 28 31 33 34 35 35 34 33 32 31 31 31 31 32 30 28 25 23 22 22 21
20 30 32 34 37 39 40 39 38 39 38 37 37 38 37 35 35 37 39 40 41 41 40 40 39 38 37 35 34 32 32 31 30 30 29 29 29 28 27 27 27 27 27 28 28 28 29 29 29 29 29 29 29 29 29 29 29 30 31 30 29 28 26 25 26 28 30 32 33 33 32 31 30 29 29 28 27 27 26 24 22 21 20 20 20
16 26 27 25 25 31 38 41 40 40 40 39 39 40 38 35 34 37 41 44 44 41 39 39 39 38 36 35 33 33 32 31 30 30 29 29 29 29 29 29 29 29 29 29 29 29 29 29 29 28 27 26 26 27 28 29 31 32 32 30 29 28 27 26 26 28 28 28 28 28 29 29 29 28 27 26 24 22 22 21 20 19 18 18 19
11 20 23 22 20 23 32 40 41 41 41 42 42 41 39 38 39 41 44 46 44 40 39 40 40 38 36 34 32 32 31 30 30 30 30 30 30 30 30 30 30 30 29 29 29 29 29 29 29 26 25 25 28 29 29 29 30 32 33 32 31 30 29 28 30 31 30 28 26 25 25 26 26 26 25 24 23 22 20 19 18 19 19 20 21
5 12 18 21 21 23 28 34 36 36 37 39 42 44 44 43 43 44 44 45 43 41 40 41 40 38 37 34 32 31 31 30 30 30 31 31 32 32 32 32 31 30 29 29 28 27 27 29 28 26 25 28 31 32 31 31 32 33 33 33 32 30 29 30 31 30 28 25 24 23 22 21 21 21 21 21 21 20 19 19 20 21 23 24 24
3 6 13 16 17 19 22 24 26 29 28 26 30 37 39 39 38 40 41 42 41 40 40 40 39 38 36 35 33 32 31 31 31 31 30 30 30 29 29 28 27 27 27 27 26 26 28 29 28 27 28 31 32 31 32 32 32 32 32 31 30 28 27 27 27 25 22 21 20 19 18 17 18 18 19 20 21 20 20 21 23 24 25 26 27
6 1 6 9 10 13 16 18 21 26 26 22 21 28 33 35 35 36 38 38 38 38 38 38 37 35 34 33 32 31 30 30 29 28 27 25 24 23 23 23 24 25 25 26 27 28 30 31 31 31 31 30 29 29 30 30 29 29 29 28 27 26 25 25 26 25 24 23 22 20 18 18 18 19 19 20 21 21 22 23 24 25 26 27 28
4 4 3 5 6 10 14 16 18 23 26 25 24 27 32 35 36 35 34 33 33 33 33 33 32 31 30 29 27 25 24 23 23 22 21 20 20 20 21 24 25 26 26 27 28 29 29 31 32 31 29 26 26 26 26 25 24 25 25 25 24 24 24 25 25 24 23 22 21 19 19 20 20 20 21 21 22 23 24 26 27 28 29 30 30
4 3 1 4 8 9 10 12 13 14 18 23 25 26 27 27 27 28 27 26 25 25 24 24 23 24 24 23 20 18 18 19 20 21 21 22 22 23 24 25 25 26 27 29 31 31 31 31 30 27 25 25 25 24 22 21 22 22 22 22 22 23 23 23 23 22 21 21 20 20 20 20 21 21 22 23 24 26 27 28 29 30 31 31 31
Wind_Direction
208 207 206 206 208 211 214 218 219 218 218 217 218 220 221 220 221 222 224 224 222 217 216 219 220 216 213 213 213 210 210 212 213 211 209 206 203 200 198 196 194 192 190 189 190 188 186 183 180 179 178 178 183 187 192 205 216 228 240 246 251 256 261 264 262 280 299 309 314 311 311 313 312 312 317 320 324 327 329 332 336 338 343 353 358
209 208 207 207 208 209 212 216 218 218 219 219 217 219 221 221 222 223 223 225 225 221 215 216 220 220 216 214 214 213 212 213 214 215 215 214 211 208 206 206 206 206 203 198 197 198 200 199 197 196 196 198 204 210 214 220 228 236 243 248 252 255 257 261 262 256 263 277 286 289 291 295 300 305 310 315 321 325 327 328 330 331 339 350 352
210 210 209 209 208 208 210 213 216 217 219 220 219 219 221 221 223 224 224 225 226 224 217 214 219 223 221 218 217 215 213 213 213 214 216 217 217 216 213 213 214 215 214 213 211 210 211 211 212 213 215 217 221 226 229 232 235 239 243 248 252 256 258 260 263 258 252 258 269 277 283 292 300 303 307 313 317 319 319 318 319 327 340 347 343
209 210 211 211 210 209 210 211 213 216 218 219 219 219 221 222 223 226 227 226 225 225 221 214 217 223 225 223 222 219 213 211 210 211 214 217 218 220 219 218 219 221 221 221 221 221 221 222 224 226 228 229 231 236 241 245 247 247 247 248 248 251 256 257 258 258 252 251 265 281 288 293 298 301 305 310 312 311 311 313 321 332 340 341 339
209 211 210 211 212 212 212 211 212 214 216 218 219 219 222 223 224 226 228 229 228 225 223 217 216 222 226 226 227 225 218 213 212 209 211 215 217 221 222 221 222 225 226 227 227 228 228 228 230 234 237 237 238 241 246 250 253 254 255 258 259 260 262 265 267 268 267 268 276 285 289 292 297 301 304 305 304 304 308 318 326 332 338 342 344
209 211 210 211 213 214 215 214 214 214 215 216 217 219 222 223 225 226 228 231 231 228 225 221 218 221 225 226 227 228 225 220 218 214 212 214 217 220 223 224 224 225 228 230 231 232 233 233 233 236 239 240 242 244 247 251 254 256 258 260 264 268 270 273 276 278 278 279 279 280 284 291 296 299 300 299 300 305 312 321 325 328 339 347 348
212 211 211 212 213 214 215 217 217 216 216 216 216 218 221 223 224 226 227 230 232 231 228 224 221 221 224 225 225 228 228 223 220 220 218 217 219 222 225 227 227 227 229 232 235 236 237 238 237 239 241 242 244 246 248 251 253 256 259 261 264 266 268 270 271 272 273 274 276 277 282 290 293 295 297 298 303 309 313 317 324 333 345 351 348
216 214 212 214 215 214 214 216 218 219 217 217 217 218 221 222 224 225 226 229 231 231 230 227 224 223 223 224 224 226 228 225 220 219 220 220 220 223 227 230 231 230 230 232 236 239 241 241 241 243 244 246 247 249 250 253 254 255 258 261 263 264 266 268 269 271 272 274 276 278 282 288 291 293 297 299 302 305 308 316 329 339 346 351 348
218 218 216 215 216 216 214 214 216 218 218 218 219 220 221 222 223 223 224 227 229 230 230 227 226 226 225 224 223 224 226 226 221 218 220 222 221 222 226 230 232 234 233 233 236 239 242 244 244 245 246 247 248 249 251 253 256 257 258 259 261 262 263 264 267 270 272 274 275 278 282 288 289 290 294 295 297 302 312 325 337 341 342 346 347
218 220 220 217 216 218 217 216 215 216 218 219 220 221 222 223 224 223 223 225 227 228 228 226 225 226 226 224 223 223 224 225 223 220 222 224 224 222 225 228 231 233 234 236 237 239 242 244 245 245 244 245 248 251 253 254 256 257 257 257 259 260 261 262 265 269 271 272 274 277 281 283 283 286 289 290 294 307 322 331 338 341 340 341 343
218 219 221 220 217 218 220 218 217 217 217 219 221 221 222 224 226 225 223 223 225 227 227 225 223 223 226 225 224 224 223 223 223 223 224 227 228 227 227 230 233 235 236 237 239 241 243 245 247 248 246 244 244 247 252 255 258 260 261 261 260 259 260 261 263 265 267 269 271 274 276 275 277 281 282 285 296 311 323 331 337 339 339 337 337
220 219 221 221 218 218 220 220 220 219 219 219 221 222 223 225 227 228 226 223 224 227 229 227 223 220 223 225 224 224 223 222 221 221 224 227 230 232 233 233 235 238 241 242 242 244 246 248 251 253 255 254 248 243 242 244 251 258 262 265 264 263 264 263 263 263 264 265 267 272 274 273 274 278 278 282 296 308 319 329 334 336 336 335 335
227 221 220 221 220 219 220 222 222 222 221 220 220 222 224 225 227 230 229 226 225 228 231 231 227 221 220 224 224 223 223 223 220 218 221 224 227 231 235 236 237 238 241 244 245 246 247 249 252 254 257 260 259 254 248 244 245 251 257 263 265 267 268 267 266 266 265 265 266 269 273 274 276 279 280 283 292 301 311 322 328 331 333 334 336
231 226 222 221 222 220 219 221 223 225 224 222 222 223 225 227 228 230 231 229 227 227 230 234 233 227 221 221 223 224 223 223 221 218 220 223 226 229 232 236 239 239 239 241 244 246 248 250 253 255 256 257 259 260 258 254 249 247 250 257 263 266 268 268 269 269 267 264 264 265 268 272 276 279 280 282 287 295 305 316 323 327 330 333 334
232 231 226 223 223 222 220 221 223 225 226 225 224 225 226 228 229 230 232 232 230 228 229 233 237 235 228 224 223 223 223 223 222 219 218 221 225 229 232 235 239 241 241 242 243 245 248 251 253 256 258 260 264 267 267 266 261 255 251 253 258 262 266 269 270 269 266 264 263 264 264 267 272 277 280 282 285 292 301 310 317 322 325 329 332
230 231 228 226 226 224 222 222 223 224 227 228 228 228 227 229 230 231 233 234 233 231 229 231 234 237 237 232 228 225 223 223 223 223 220 221 224 229 233 236 239 242 244 246 246 246 247 249 252 254 256 259 264 269 274 275 273 270 265 260 258 258 260 265 267 266 264 262 261 262 264 268 272 275 277 279 283 290 297 305 315 321 322 326 331
227 228 228 227 228 228 224 223 224 225 226 229 231 231 230 230 231 231 233 235 235 233 231 231 232 234 237 238 235 231 226 223 224 226 226 225 226 229 234 237 240 242 245 248 250 249 247 248 250 252 253 254 257 261 266 272 275 276 275 272 267 261 258 259 261 261 261 260 260 261 264 268 269 270 272 276 281 287 293 303 317 321 320 325 330
223 225 228 228 230 231 228 224 224 225 227 229 232 233 233 233 232 233 235 236 237 236 235 234 234 233 235 238 240 239 235 228 224 224 225 227 229 231 235 238 240 242 244 248 251 252 251 250 250 250 251 251 252 253 257 263 270 274 277 276 272 266 261 259 258 256 256 256 257 259 261 262 263 264 267 273 278 284 291 304 317 318 319 325 327
220 224 228 230 231 232 231 227 225 225 227 230 231 233 234 235 234 235 236 238 239 239 238 237 237 236 235 237 239 241 241 238 231 225 223 226 229 232 235 238 240 241 243 246 250 254 255 254 253 253 252 251 250 252 254 258 263 268 272 273 273 272 270 265 258 253 252 252 252 254 255 257 260 261 265 272 278 284 292 307 316 315 318 323 325
219 225 229 231 231 231 231 230 227 225 226 229 230 232 233 234 235 235 236 238 238 239 240 239 239 239 237 236 237 239 242 243 240 234 229 228 229 231 234 237 240 242 243 245 249 254 257 258 257 257 256 254 253 254 256 259 262 264 265 267 272 275 273 268 263 259 255 252 253 254 256 258 260 262 268 275 280 286 297 308 312 311 317 322 324
218 224 228 230 229 228 228 229 230 228 226 226 228 230 231 233 234 234 235 237 237 239 241 240 241 241 240 238 237 237 239 242 244 242 237 234 233 233 234 237 240 242 244 246 249 254 258 259 259 259 259 258 257 257 258 260 262 262 263 265 268 270 270 268 268 267 262 259 258 259 260 262 263 266 272 277 280 289 299 306 308 312 319 323 323
221 221 223 226 227 227 227 227 229 229 228 226 226 229 230 231 233 234 234 235 236 238 241 242 242 242 241 240 239 238 239 240 241 242 241 239 239 239 238 239 241 243 246 248 251 254 256 258 259 259 259 259 258 258 259 260 261 262 264 265 266 266 267 268 269 270 269 267 265 265 267 269 268 271 276 277 281 291 300 304 308 315 319 321 322
226 223 221 223 225 228 229 229 228 229 229 227 226 227 229 230 231 232 233 234 234 236 239 241 242 242 241 241 239 239 240 240 240 240 240 241 242 243 244 243 245 247 249 251 253 254 255 257 258 258 259 259 259 260 260 259 260 261 264 265 266 267 268 268 270 272 273 273 272 274 277 277 276 279 281 282 285 293 299 304 310 315 317 319 321
229 227 224 224 224 226 230 232 230 229 229 228 227 228 229 230 230 231 232 233 234 235 237 239 241 241 242 242 240 239 239 241 241 240 240 241 243 245 247 247 247 249 251 252 252 252 254 256 258 258 258 259 260 261 261 260 259 260 262 264 267 269 270 271 273 274 274 275 276 279 281 280 280 281 281 284 289 294 298 302 308 312 315 318 319
232 230 228 227 226 226 229 233 233 231 229 228 228 229 231 232 231 230 231 232 233 234 235 237 240 242 243 243 242 240 239 241 242 241 240 241 242 244 246 246 247 248 249 249 249 251 254 257 259 258 258 258 258 258 258 258 257 257 259 262 266 269 271 272 274 274 275 276 276 277 278 279 278 277 278 284 290 292 295 300 305 309 313 315 315
235 233 231 229 227 227 229 232 234 234 231 228 227 229 231 233 233 232 231 231 232 233 234 236 238 240 242 244 244 242 240 240 242 242 240 237 237 239 241 242 243 245 245 246 248 251 255 258 259 260 259 258 257 256 256 256 257 257 259 262 266 269 271 272 273 274 274 275 274 274 276 276 275 275 278 284 287 287 291 297 302 305 308 311 313
235 235 235 233 231 230 230 231 234 235 233 229 227 227 229 232 234 234 233 232 232 232 233 234 236 239 241 243 244 243 241 240 240 240 238 234 232 233 235 237 239 242 244 247 250 254 257 258 258 258 257 256 256 256 257 258 260 261 263 264 266 268 270 271 272 272 273 274 274 274 274 274 274 275 279 281 282 284 288 294 298 302 305 309 311
236 238 239 239 238 237 235 234 234 235 234 232 229 227 226 228 232 233 234 234 232 232 233 234 236 239 241 243 245 245 243 241 240 238 236 233 231 231 232 233 237 242 246 248 250 252 253 254 254 255 256 256 257 257 259 261 263 265 265 265 265 266 267 268 268 269 270 271 272 272 272 273 274 274 276 277 278 281 287 292 298 302 305 306 307
237 239 241 242 242 242 241 239 236 235 234 233 232 230 228 228 230 231 233 234 234 233 234 236 239 242 242 242 244 246 245 243 240 237 235 233 231 229 229 230 234 239 242 243 244 246 247 250 253 256 259 261 262 262 263 264 266 267 267 266 266 265 265 266 267 268 268 269 270 271 271 273 274 273 272 273 276 281 287 294 299 301 301 301 301
240 241 242 242 241 242 243 243 240 237 234 232 232 232 230 229 229 230 233 235 234 232 233 235 239 242 242 242 244 246 247 245 242 236 231 229 227 224 223 226 229 232 236 239 242 244 246 250 254 258 261 264 265 266 266 267 268 268 268 268 268 267 267 268 269 269 268 268 269 271 272 274 274 272 271 273 278 283 289 295 298 298 297 298 298
242 243 243 242 242 241 242 244 244 241 236 233 232 231 231 230 228 229 231 233 233 230 229 231 234 235 236 238 240 242 242 240 237 233 227 223 221 219 218 222 228 233 238 243 246 248 250 253 256 258 261 263 264 265 267 267 267 267 267 267 268 269 270 270 270 269 268 268 270 273 275 274 273 272 274 277 281 285 290 293 294 295 296 297 298
242 243 244 244 243 242 241 243 245 243 239 236 234 232 231 230 229 229 230 230 229 226 226 228 230 231 232 233 234 234 233 232 231 228 226 223 221 221 224 229 235 240 243 246 249 251 252 254 256 258 260 262 263 265 266 266 265 265 265 266 267 269 270 270 270 270 271 272 272 272 272 273 274 277 280 282 284 287 290 290 290 290 292 295 296
241 239 238 237 238 239 239 240 243 244 241 238 236 233 229 228 227 228 229 228 225 222 223 226 229 230 230 230 229 227 227 227 228 227 228 229 230 232 235 237 240 243 245 247 249 252 254 256 257 258 259 260 262 263 264 264 265 265 264 264 264 264 266 266 268 270 272 272 272 271 271 274 278 282 283 284 286 288 288 286 284 284 285 289 292
238 236 234 234 236 239 240 240 240 242 242 239 237 234 230 227 227 227 227 226 222 221 224 228 228 227 226 224 223 222 223 225 227 229 232 236 239 240 240 238 238 241 243 246 249 252 254 255 257 258 260 260 262 263 263 263 263 262 262 262 261 260 261 263 265 267 268 270 271 273 275 277 281 284 287 289 290 287 283 279 278 277 280 284 287
237 234 233 235 237 239 242 244 243 243 243 242 240 238 234 231 229 227 224 222 221 223 227 227 223 221 221 220 220 222 224 226 231 234 237 240 242 241 240 238 238 240 243 246 250 253 255 256 257 259 261 263 264 264 264 263 261 260 260 260 260 260 262 263 264 265 267 270 272 274 276 277 279 283 287 287 285 281 279 277 276 276 279 283 286
237 236 233 234 235 235 239 244 244 243 242 241 238 238 238 236 233 228 220 217 218 220 222 223 221 219 220 222 224 227 230 234 238 240 240 241 240 240 239 238 238 240 242 245 249 252 255 257 257 258 260 262 263 263 263 262 261 258 255 256 259 262 264 265 268 270 272 272 272 273 275 278 282 286 287 283 281 281 282 281 278 278 280 282 284
236 237 235 234 235 234 235 239 240 239 240 238 233 232 236 237 236 231 222 215 215 217 216 218 221 223 224 227 230 233 236 239 240 240 238 236 236 236 237 238 238 239 241 244 247 250 253 254 255 256 258 261 264 266 266 265 263 260 258 260 264 264 265 268 271 273 272 273 277 281 284 286 290 292 289 285 284 285 285 282 280 280 281 282 284
234 236 236 235 235 234 233 234 235 235 237 236 232 231 233 234 234 233 228 219 215 215 215 217 220 224 228 232 236 238 238 237 236 235 234 232 233 235 237 238 240 240 241 243 245 248 249 250 252 255 258 261 263 265 265 267 269 268 265 264 265 266 267 270 273 273 274 278 285 289 291 292 292 290 287 285 285 285 283 281 279 279 280 282 286
235 234 235 234 233 233 232 232 233 235 236 235 231 229 232 232 231 232 231 225 219 216 216 218 222 226 231 236 237 236 235 232 231 231 231 231 234 236 237 238 239 239 239 240 242 244 246 247 249 252 255 258 261 262 263 266 270 271 268 263 263 265 268 271 276 279 281 283 284 285 286 286 285 284 284 284 283 282 282 282 281 280 281 283 285
237 234 233 232 230 231 231 231 232 234 236 234 229 225 228 233 233 231 230 228 222 219 219 222 225 228 231 233 233 232 231 230 229 229 230 231 232 234 235 236 237 239 240 242 245 248 251 253 255 257 258 259 261 264 266 268 271 274 273 266 264 267 270 272 276 281 284 283 281 279 279 279 278 278 280 280 278 279 281 282 282 281 280 280 280
240 235 230 227 227 228 229 230 230 231 231 232 230 226 227 231 233 231 229 227 223 221 222 225 228 229 229 230 230 230 229 228 227 227 228 229 231 233 235 237 240 244 247 249 251 254 257 260 263 265 266 267 268 270 272 274 277 280 278 272 269 272 276 277 278 278 276 275 272 272 274 276 277 278 280 279 277 278 281 280 277 275 274 275 277
241 235 229 226 225 226 225 226 228 229 229 230 230 229 229 230 231 231 231 227 221 219 222 226 228 229 228 228 228 227 226 226 226 227 229 232 234 236 238 240 243 247 250 252 255 258 260 262 265 266 268 270 271 273 276 278 281 284 282 277 274 274 275 278 278 274 269 269 271 273 275 277 277 278 279 278 277 277 277 275 270 269 271 274 278
236 233 230 228 226 224 223 224 226 226 227 227 227 226 228 228 228 232 234 227 218 216 221 225 226 227 227 226 226 224 223 224 227 229 232 236 238 240 242 244 246 247 250 252 255 258 260 262 265 267 269 271 273 276 279 281 282 281 279 277 276 273 271 272 273 272 271 273 275 275 274 273 273 274 275 275 274 273 272 269 267 268 271 275 278
218 223 227 229 228 225 223 224 224 223 225 227 227 226 226 225 226 232 234 226 216 213 216 220 221 223 224 224 222 221 221 224 228 231 235 238 240 242 243 244 245 247 249 251 254 257 260 263 265 267 269 272 275 278 281 282 282 279 275 275 277 279 277 273 271 272 273 274 273 271 269 269 271 272 271 269 268 268 267 267 270 272 274 276 280
193 214 225 231 231 228 226 225 224 222 221 222 222 222 223 224 228 230 227 220 215 214 214 216 218 220 221 221 221 221 223 225 228 232 236 238 241 243 245 247 249 250 250 252 254 256 258 259 261 263 268 271 273 272 272 273 274 275 275 277 280 281 280 277 275 273 271 269 266 267 268 269 269 268 267 267 267 269 271 275 277 278 277 278 280
172 204 218 224 223 221 222 224 224 223 222 223 223 223 223 221 221 222 219 215 214 214 214 216 218 219 219 221 224 225 227 230 232 236 239 242 245 248 249 250 250 249 249 250 252 253 255 259 262 264 266 268 268 267 265 264 264 267 270 273 275 275 276 277 277 276 273 268 265 264 264 265 266 267 268 269 271 272 275 278 279 278 277 277 277
133 178 196 206 209 206 209 214 216 217 220 223 223 224 224 219 215 213 212 211 211 213 215 218 220 220 221 225 229 232 235 238 239 241 243 246 248 250 251 251 250 248 247 247 248 251 257 261 259 255 256 259 262 263 262 261 262 265 269 272 273 273 274 275 275 273 270 266 264 263 262 261 263 265 267 270 271 270 271 272 273 275 277 278 279
9 151 174 190 198 199 206 212 211 209 214 216 210 208 209 209 207 207 209 209 209 211 215 217 219 221 225 230 235 238 240 242 243 245 247 248 248 247 246 245 244 242 243 245 248 251 253 251 248 251 258 264 265 265 266 265 266 267 269 271 272 273 275 276 276 275 274 272 272 270 266 263 264 265 267 268 269 268 268 270 272 274 277 280 283
333 297 180 177 170 174 192 209 214 215 222 227 216 204 203 204 207 211 215 216 215 216 218 220 222 225 230 234 237 240 242 244 246 248 248 246 245 243 241 239 240 242 245 247 245 242 240 242 249 260 267 270 269 268 267 265 265 266 267 269 271 273 274 276 278 279 279 278 277 277 275 273 272 270 269 269 269 270 272 274 276 277 279 280 282
339 314 255 215 182 166 169 180 195 209 219 225 225 218 212 210 211 214 217 218 218 219 220 223 226 229 232 234 237 241 245 247 247 246 243 241 240 239 236 234 234 234 236 238 240 241 244 251 258 264 266 265 264 263 260 259 260 263 264 266 269 271 273 275 276 276 276 275 274 274 275 275 274 273 273 273 274 275 276 277 277 277 278 278 278
34 12 311 236 232 224 202 181 172 178 193 204 213 218 217 214 212 214 215 216 219 221 223 226 229 231 232 231 231 232 234 235 234 234 234 234 234 235 236 236 235 234 235 239 245 251 256 259 258 257 255 256 258 259 260 261 262 262 263 264 266 267 269 270 270 272 273 273 273 274 274 274 274 274 275 275 274 274 274 275 275 275 275 276 276
Height
3183 3187 3190 3192 3195 3197 3200 3202 3205 3207 3209 3210 3212 3214 3216 3217 3219 3220 3221 3222 3224 3226 3227 3229 3230 3231 3233 3234 3235 3236 3237 3239 3239 3240 3241 3242 3243 3244 3245 3246 3247 3248 3249 3250 3251 3252 3253 3253 3254 3254 3255 3255 3256 3256 3257 3257 3258 3258 3258 3259 3259 3259 3260 3260 3260 3260 3260 3260 3260 3259 3259 3259 3258 3257 3256 3256 3256 3254 3253 3252 3250 3249 3249 3248 3247
3181 3184 3187 3189 3192 3194 3197 3200 3202 3204 3206 3208 3209 3211 3213 3215 3217 3218 3219 3220 3222 3223 3225 3227 3228 3229 3231 3232 3233 3235 3236 3237 3238 3239 3240 3241 3242 3243 3244 3245 3246 3247 3248 3249 3250 3251 3252 3252 3253 3253 3254 3254 3255 3256 3256 3257 3257 3257 3258 3258 3258 3259 3259 3259 3259 3259 3259 3259 3259 3259 3258 3258 3257 3256 3255 3255 3254 3253 3252 3251 3250 3249 3249 3248 3247
3179 3181 3184 3186 3189 3192 3194 3196 3199 3201 3203 3205 3207 3209 3210 3212 3214 3216 3217 3219 3220 3221 3223 3225 3226 3227 3229 3230 3232 3233 3234 3235 3237 3238 3239 3239 3240 3241 3243 3244 3245 3246 3247 3248 3249 3250 3250 3251 3252 3252 3253 3253 3254 3255 3255 3256 3256 3256 3257 3257 3257 3258 3258 3258 3258 3258 3258 3258 3258 3257 3257 3256 3256 3255 3254 3253 3253 3252 3251 3251 3250 3249 3248 3247 3246
3176 3178 3181 3184 3186 3189 3191 3193 3195 3198 3200 3202 3204 3207 3208 3210 3212 3213 3215 3216 3218 3219 3221 3223 3224 3225 3227 3228 3230 3231 3232 3234 3235 3236 3237 3238 3239 3240 3241 3242 3243 3244 3245 3246 3247 3248 3249 3249 3250 3251 3251 3252 3253 3253 3254 3254 3255 3255 3255 3256 3256 3256 3256 3256 3256 3256 3256 3256 3256 3255 3255 3255 3254 3253 3252 3252 3251 3251 3250 3250 3249 3248 3247 3246 3245
3174 3176 3178 3181 3183 3185 3187 3190 3192 3194 3197 3199 3202 3204 3206 3207 3209 3211 3212 3214 3216 3217 3219 3220 3222 3223 3225 3226 3228 3229 3231 3232 3233 3234 3235 3236 3237 3238 3239 3240 3241 3242 3243 3244 3245 3246 3247 3248 3248 3249 3249 3250 3251 3252 3252 3252 3253 3253 3253 3254 3254 3254 3254 3254 3254 3254 3254 3254 3254 3254 3253 3253 3252 3251 3250 3250 3249 3249 3249 3248 3247 3246 3246 3244 3242
3172 3173 3176 3178 3180 3182 3185 3187 3189 3191 3194 3197 3200 3202 3203 3205 3206 3208 3210 3211 3213 3215 3216 3218 3219 3221 3223 3224 3226 3227 3229 3230 3231 3232 3234 3234 3235 3236 3237 3238 3239 3240 3241 3242 3242 3243 3244 3245 3246 3247 3247 3248 3249 3249 3250 3250 3251 3251 3251 3252 3252 3252 3252 3252 3252 3252 3252 3252 3252 3252 3251 3251 3250 3250 3249 3248 3247 3247 3246 3247 3246 3245 3244 3242 3240
3169 3171 3173 3175 3177 3180 3182 3184 3187 3189 3192 3194 3197 3199 3200 3202 3204 3206 3207 3209 3211 3213 3214 3216 3217 3219 3220 3222 3224 3225 3226 3228 3229 3230 3231 3232 3233 3234 3235 3236 3237 3238 3239 3239 3240 3241 3242 3243 3244 3244 3245 3246 3246 3247 3247 3248 3248 3249 3249 3249 3250 3250 3250 3250 3250 3250 3250 3250 3250 3249 3249 3249 3248 3247 3247 3246 3245 3245 3244 3244 3244 3243 3242 3240 3238
3167 3169 3171 3173 3175 3177 3180 3182 3185 3187 3189 3192 3194 3196 3198 3199 3201 3203 3205 3206 3208 3210 3212 3214 3216 3217 3218 3219 3221 3222 3224 3225 3226 3228 3229 3230 3231 3232 3233 3234 3234 3235 3236 3237 3238 3239 3239 3240 3241 3242 3243 3243 3244 3244 3245 3245 3245 3246 3247 3247 3247 3247 3247 3248 3248 3248 3248 3248 3247 3247 3247 3247 3246 3245 3245 3244 3244 3244 3243 3242 3241 3240 3239 3238 3237
3165 3167 3168 3170 3173 3176 3178 3180 3182 3184 3187 3189 3191 3193 3195 3196 3198 3200 3202 3203 3205 3207 3209 3212 3213 3215 3216 3217 3219 3220 3221 3222 3224 3225 3227 3228 3229 3230 3231 3232 3232 3233 3234 3235 3235 3236 3237 3238 3239 3240 3240 3241 3241 3242 3242 3242 3243 3243 3244 3244 3244 3244 3245 3245 3245 3245 3245 3245 3245 3245 3245 3245 3244 3243 3243 3242 3242 3242 3241 3240 3239 3238 3237 3236 3235
3163 3164 3166 3168 3171 3174 3176 3178 3180 3182 3183 3185 3188 3190 3192 3194 3195 3197 3199 3200 3202 3204 3206 3208 3210 3212 3214 3215 3216 3217 3218 3220 3221 3223 3224 3225 3227 3228 3229 3229 3230 3231 3231 3232 3233 3234 3234 3235 3236 3237 3238 3238 3239 3239 3240 3240 3240 3240 3241 3241 3241 3242 3242 3242 3242 3243 3242 3242 3242 3242 3242 3242 3242 3241 3241 3240 3240 3239 3239 3238 3237 3235 3234 3233 3232
3160 3162 3164 3166 3169 3171 3174 3176 3177 3179 3181 3183 3185 3187 3189 3191 3192 3194 3196 3198 3199 3201 3202 3204 3207 3209 3211 3212 3214 3214 3216 3218 3219 3221 3222 3223 3224 3225 3226 3227 3228 3228 3229 3230 3230 3231 3232 3233 3233 3234 3235 3236 3237 3237 3237 3237 3238 3238 3238 3238 3238 3239 3239 3240 3240 3240 3240 3240 3240 3240 3240 3240 3240 3239 3239 3238 3238 3237 3236 3235 3235 3233 3232 3231 3230
3157 3159 3161 3164 3166 3168 3171 3173 3175 3176 3178 3180 3182 3184 3186 3188 3189 3191 3193 3195 3197 3198 3199 3201 3204 3206 3208 3209 3211 3212 3214 3215 3217 3218 3219 3220 3221 3222 3223 3224 3225 3226 3226 3227 3228 3229 3229 3230 3230 3231 3232 3233 3234 3235 3235 3235 3235 3235 3235 3235 3235 3236 3236 3237 3237 3237 3237 3237 3237 3238 3237 3237 3237 3237 3237 3236 3236 3235 3234 3234 3233 3232 3231 3229 3227
3154 3157 3158 3160 3163 3165 3168 3170 3172 3174 3176 3178 3180 3181 3183 3184 3186 3187 3190 3192 3194 3195 3196 3198 3200 3202 3204 3206 3208 3210 3211 3213 3215 3216 3217 3218 3219 3220 3220 3221 3222 3223 3224 3225 3225 3226 3227 3227 3228 3228 3229 3230 3230 3231 3232 3233 3233 3233 3233 3233 3233 3233 3233 3233 3234 3234 3234 3234 3235 3235 3235 3234 3235 3235 3234 3234 3234 3233 3233 3232 3231 3230 3229 3227 3225
3151 3153 3155 3157 3159 3162 3164 3167 3169 3172 3174 3175 3177 3178 3179 3181 3183 3184 3187 3189 3191 3193 3194 3195 3196 3199 3201 3203 3205 3207 3208 3210 3212 3213 3215 3216 3216 3217 3218 3218 3219 3220 3221 3222 3222 3223 3224 3225 3225 3226 3227 3227 3228 3228 3229 3230 3230 3230 3230 3230 3230 3230 3230 3231 3231 3231 3231 3231 3232 3233 3233 3232 3232 3232 3232 3232 3231 3231 3230 3230 3229 3228 3227 3225 3224
3149 3150 3152 3153 3156 3158 3161 3164 3166 3169 3171 3173 3174 3175 3176 3178 3180 3182 3183 3185 3187 3190 3191 3192 3193 3195 3198 3200 3202 3203 3205 3207 3209 3210 3212 3213 3214 3214 3215 3215 3216 3216 3218 3219 3219 3220 3221 3222 3223 3223 3224 3224 3225 3225 3226 3226 3227 3227 3227 3228 3228 3228 3228 3228 3228 3228 3228 3228 3229 3230 3230 3230 3230 3230 3229 3229 3229 3228 3228 3228 3227 3226 3225 3224 3222
3146 3148 3149 3150 3152 3155 3158 3161 3163 3165 3168 3170 3171 3172 3174 3175 3177 3179 3180 3182 3184 3186 3188 3189 3190 3192 3194 3196 3198 3200 3202 3204 3206 3207 3209 3210 3210 3211 3211 3212 3212 3213 3214 3215 3216 3218 3219 3219 3220 3221 3221 3222 3222 3222 3222 3222 3223 3223 3224 3225 3225 3225 3226 3226 3226 3225 3225 3226 3226 3227 3227 3228 3227 3227 3227 3227 3226 3226 3225 3225 3224 3224 3223 3222 3220
3143 3145 3146 3147 3149 3151 3154 3157 3159 3162 3164 3166 3168 3169 3171 3173 3174 3176 3177 3178 3180 3182 3184 3186 3187 3189 3190 3192 3194 3196 3198 3200 3202 3204 3205 3206 3207 3207 3208 3208 3209 3210 3211 3212 3212 3214 3215 3216 3217 3218 3219 3219 3220 3220 3220 3219 3219 3220 3220 3221 3222 3222 3223 3223 3223 3223 3223 3223 3223 3224 3225 3225 3225 3225 3225 3224 3223 3223 3223 3222 3222 3221 3220 3219 3218
3141 3142 3143 3145 3146 3148 3150 3153 3156 3158 3161 3162 3164 3166 3168 3170 3171 3172 3174 3175 3176 3178 3181 3182 3184 3185 3186 3187 3189 3192 3194 3196 3199 3200 3202 3203 3203 3204 3204 3205 3205 3206 3207 3208 3208 3210 3211 3213 3214 3215 3216 3217 3218 3218 3218 3217 3217 3217 3217 3217 3218 3219 3220 3221 3220 3220 3220 3220 3221 3222 3222 3223 3223 3223 3223 3222 3221 3221 3220 3220 3219 3219 3217 3216 3215
3138 3139 3140 3141 3143 3144 3146 3149 3152 3154 3156 3159 3161 3163 3165 3167 3168 3170 3171 3172 3173 3175 3177 3178 3180 3182 3183 3184 3185 3187 3189 3191 3194 3196 3198 3199 3200 3200 3201 3201 3202 3202 3204 3204 3205 3206 3207 3209 3210 3211 3213 3214 3215 3215 3215 3215 3214 3214 3214 3214 3214 3215 3217 3217 3217 3217 3217 3218 3219 3219 3220 3220 3220 3220 3220 3220 3219 3218 3218 3218 3217 3216 3215 3213 3212
3135 3137 3138 3138 3140 3141 3142 3144 3147 3150 3152 3155 3157 3159 3161 3163 3165 3166 3167 3168 3170 3171 3172 3174 3176 3178 3179 3181 3182 3183 3184 3186 3189 3191 3193 3194 3196 3197 3197 3197 3198 3199 3200 3201 3202 3202 3204 3205 3207 3208 3209 3210 3211 3212 3212 3212 3212 3212 3212 3211 3211 3213 3214 3214 3214 3214 3215 3215 3216 3216 3217 3217 3217 3217 3217 3217 3216 3216 3216 3216 3215 3213 3212 3211 3209
3131 3133 3134 3135 3136 3137 3139 3140 3142 3145 3148 3151 3153 3154 3157 3158 3160 3162 3164 3165 3166 3167 3168 3170 3172 3173 3175 3177 3178 3179 3181 3182 3184 3186 3188 3190 3191 3192 3193 3194 3195 3196 3197 3198 3199 3200 3201 3202 3203 3205 3206 3207 3208 3208 3208 3209 3209 3209 3209 3209 3209 3210 3210 3211 3211 3212 3212 3212 3213 3213 3214 3214 3215 3215 3215 3214 3214 3214 3214 3213 3212 3210 3209 3207 3206
3126 3128 3130 3131 3133 3134 3135 3136 3138 3140 3143 3146 3148 3150 3152 3154 3156 3158 3160 3161 3162 3163 3164 3165 3167 3169 3171 3172 3174 3175 3177 3179 3180 3182 3184 3185 3187 3187 3188 3190 3192 3193 3194 3195 3196 3197 3198 3199 3200 3202 3203 3203 3204 3204 3205 3205 3205 3205 3206 3206 3207 3207 3207 3208 3208 3208 3209 3209 3210 3210 3211 3212 3212 3212 3212 3211 3211 3211 3210 3209 3208 3207 3206 3205 3204
3122 3123 3125 3127 3128 3130 3131 3132 3134 3136 3138 3140 3143 3145 3147 3149 3151 3153 3155 3156 3158 3159 3160 3161 3163 3164 3166 3168 3169 3171 3173 3174 3176 3178 3180 3181 3182 3183 3184 3187 3188 3189 3190 3191 3193 3193 3194 3195 3197 3198 3199 3200 3200 3201 3202 3202 3202 3203 3203 3203 3203 3204 3204 3205 3205 3205 3206 3206 3207 3208 3209 3209 3209 3209 3208 3207 3207 3207 3206 3205 3204 3204 3203 3202 3201
3119 3119 3121 3123 3124 3126 3127 3129 3130 3131 3133 3135 3138 3140 3141 3143 3146 3148 3150 3152 3153 3154 3155 3156 3158 3159 3161 3163 3165 3167 3168 3170 3172 3174 3175 3177 3178 3179 3181 3183 3184 3185 3186 3188 3189 3190 3191 3192 3194 3195 3196 3196 3197 3197 3198 3199 3199 3200 3200 3200 3200 3201 3201 3202 3202 3203 3203 3204 3204 3205 3206 3206 3206 3205 3205 3204 3204 3203 3202 3202 3202 3201 3201 3200 3198
3114 3115 3117 3119 3120 3122 3123 3124 3126 3127 3129 3131 3132 3134 3136 3138 3140 3142 3145 3146 3148 3149 3151 3152 3153 3155 3157 3159 3161 3163 3164 3165 3167 3169 3171 3173 3174 3176 3177 3179 3180 3181 3182 3183 3184 3186 3187 3189 3190 3191 3192 3193 3194 3194 3194 3195 3196 3196 3196 3196 3196 3197 3198 3199 3199 3199 3200 3201 3202 3202 3202 3202 3202 3201 3201 3201 3201 3200 3199 3199 3199 3199 3198 3197 3195
3110 3111 3113 3114 3116 3117 3119 3120 3121 3123 3124 3126 3128 3129 3131 3132 3134 3137 3139 3141 3143 3145 3146 3148 3149 3150 3152 3154 3157 3159 3160 3161 3163 3165 3167 3169 3170 3172 3173 3174 3176 3177 3178 3179 3180 3182 3184 3185 3186 3187 3188 3189 3190 3190 3191 3191 3192 3192 3193 3193 3194 3194 3195 3195 3196 3196 3197 3197 3198 3198 3198 3198 3197 3197 3197 3198 3198 3197 3197 3197 3197 3196 3195 3194 3192
3106 3107 3108 3110 3111 3112 3113 3115 3117 3118 3120 3121 3123 3124 3126 3127 3129 3131 3134 3136 3138 3140 3142 3143 3145 3146 3148 3150 3152 3155 3156 3157 3158 3160 3162 3164 3166 3168 3169 3171 3172 3173 3174 3176 3177 3179 3180 3181 3182 3183 3184 3185 3186 3186 3187 3188 3188 3189 3190 3190 3190 3191 3191 3192 3192 3192 3193 3193 3193 3194 3194 3193 3193 3193 3194 3194 3194 3195 3195 3195 3194 3193 3192 3190 3188
3101 3103 3104 3105 3106 3107 3109 3110 3112 3113 3115 3117 3118 3119 3121 3123 3125 3127 3129 3131 3133 3135 3137 3139 3141 3143 3145 3147 3149 3151 3152 3153 3154 3156 3158 3161 3163 3164 3166 3167 3168 3169 3171 3173 3174 3175 3175 3176 3176 3178 3179 3180 3181 3182 3183 3184 3184 3185 3186 3186 3187 3187 3188 3188 3188 3188 3189 3189 3189 3189 3189 3189 3189 3190 3191 3191 3192 3193 3193 3192 3191 3190 3188 3186 3184
3096 3098 3099 3100 3101 3102 3102 3104 3106 3108 3110 3112 3114 3116 3117 3119 3121 3124 3126 3127 3130 3133 3135 3137 3139 3141 3143 3145 3146 3147 3148 3150 3152 3154 3156 3158 3159 3161 3163 3164 3166 3167 3168 3170 3170 3170 3170 3171 3172 3174 3175 3176 3177 3178 3179 3180 3180 3181 3181 3182 3183 3183 3183 3183 3184 3184 3185 3185 3185 3185 3185 3185 3186 3187 3188 3189 3189 3190 3190 3189 3187 3185 3183 3182 3180
3090 3092 3093 3093 3094 3096 3096 3097 3100 3103 3105 3108 3110 3112 3113 3115 3117 3120 3122 3124 3127 3130 3133 3136 3139 3141 3142 3143 3144 3145 3146 3148 3150 3152 3153 3155 3156 3158 3160 3161 3162 3164 3165 3166 3165 3165 3166 3167 3169 3170 3171 3172 3172 3173 3174 3175 3176 3176 3177 3177 3178 3178 3179 3179 3179 3180 3180 3180 3180 3181 3182 3182 3183 3184 3185 3185 3185 3185 3185 3184 3182 3180 3179 3178 3176
3084 3085 3086 3087 3089 3090 3091 3092 3094 3098 3100 3103 3105 3107 3108 3110 3113 3115 3117 3120 3124 3127 3130 3133 3136 3138 3139 3141 3142 3144 3145 3147 3148 3149 3150 3152 3153 3155 3157 3158 3159 3160 3161 3161 3160 3161 3162 3164 3165 3166 3167 3168 3168 3168 3169 3170 3171 3171 3172 3172 3173 3173 3174 3174 3174 3174 3175 3176 3176 3177 3178 3178 3178 3179 3180 3181 3180 3180 3180 3178 3177 3175 3175 3174 3172
3078 3079 3080 3081 3083 3085 3086 3088 3090 3093 3095 3098 3099 3101 3103 3106 3109 3111 3114 3117 3120 3123 3126 3129 3131 3133 3135 3137 3139 3141 3143 3144 3145 3146 3148 3149 3150 3152 3153 3154 3155 3156 3156 3156 3156 3157 3158 3160 3161 3162 3163 3163 3164 3164 3165 3165 3165 3166 3167 3167 3168 3169 3169 3169 3169 3169 3170 3172 3172 3172 3173 3173 3174 3175 3176 3176 3176 3175 3174 3173 3172 3171 3171 3170 3168
3071 3071 3072 3073 3077 3081 3083 3085 3086 3088 3090 3092 3094 3096 3099 3102 3104 3107 3110 3113 3116 3119 3121 3124 3127 3129 3131 3133 3135 3137 3139 3141 3142 3144 3145 3146 3147 3149 3149 3150 3151 3151 3151 3151 3151 3153 3155 3156 3157 3158 3159 3159 3160 3160 3160 3160 3160 3161 3161 3162 3163 3164 3165 3165 3165 3166 3166 3167 3167 3167 3168 3169 3170 3170 3171 3171 3170 3170 3169 3168 3167 3167 3166 3166 3165
3062 3064 3067 3071 3075 3078 3080 3081 3083 3084 3086 3087 3088 3090 3093 3097 3100 3103 3106 3109 3112 3115 3117 3120 3123 3125 3127 3130 3132 3134 3136 3138 3139 3140 3142 3143 3144 3145 3145 3146 3146 3145 3146 3147 3148 3150 3151 3152 3153 3153 3154 3154 3155 3155 3155 3155 3155 3155 3156 3157 3159 3160 3161 3161 3162 3162 3163 3162 3162 3162 3163 3165 3165 3165 3166 3166 3166 3166 3164 3163 3163 3162 3162 3162 3162
3055 3059 3065 3068 3070 3073 3075 3077 3079 3081 3082 3084 3085 3087 3089 3091 3094 3098 3102 3106 3109 3112 3115 3117 3120 3122 3124 3126 3129 3131 3132 3134 3136 3137 3138 3139 3140 3140 3140 3141 3141 3141 3142 3143 3145 3146 3147 3148 3149 3149 3149 3150 3150 3151 3150 3150 3150 3150 3151 3153 3154 3155 3156 3157 3158 3158 3159 3159 3159 3159 3159 3160 3161 3161 3162 3162 3161 3160 3159 3159 3158 3158 3158 3158 3158
3051 3055 3060 3062 3064 3067 3070 3072 3074 3076 3077 3080 3082 3085 3087 3089 3091 3095 3099 3102 3105 3109 3112 3115 3117 3120 3122 3124 3126 3127 3129 3130 3131 3133 3134 3135 3135 3136 3136 3137 3137 3138 3139 3140 3141 3142 3143 3144 3145 3145 3145 3145 3145 3145 3145 3145 3144 3144 3146 3149 3151 3152 3153 3154 3154 3155 3155 3155 3155 3155 3155 3156 3157 3158 3158 3157 3156 3155 3155 3155 3154 3154 3154 3154 3154
3047 3051 3055 3057 3059 3062 3064 3066 3068 3071 3072 3074 3077 3079 3083 3086 3089 3091 3094 3097 3101 3104 3108 3111 3114 3116 3119 3121 3123 3124 3125 3126 3127 3128 3130 3131 3131 3132 3132 3133 3134 3135 3135 3136 3137 3138 3138 3139 3140 3140 3141 3141 3140 3140 3140 3139 3137 3138 3141 3146 3149 3150 3150 3151 3151 3152 3151 3151 3151 3151 3151 3152 3153 3153 3152 3151 3151 3151 3150 3150 3150 3149 3149 3150 3149
3042 3046 3050 3052 3054 3056 3059 3061 3063 3065 3067 3070 3072 3074 3077 3081 3084 3086 3089 3093 3096 3100 3104 3107 3110 3112 3115 3117 3118 3120 3121 3122 3123 3124 3125 3126 3127 3128 3129 3129 3130 3131 3131 3132 3132 3133 3134 3135 3135 3136 3137 3137 3137 3136 3135 3133 3131 3134 3139 3142 3144 3145 3145 3146 3146 3146 3146 3148 3148 3148 3148 3148 3149 3149 3148 3147 3147 3147 3146 3145 3145 3145 3144 3145 3145
3037 3040 3044 3047 3050 3052 3054 3056 3058 3060 3061 3064 3067 3070 3073 3076 3080 3083 3086 3088 3092 3096 3100 3103 3106 3109 3111 3112 3113 3115 3116 3117 3118 3119 3121 3122 3123 3124 3125 3126 3126 3127 3127 3128 3128 3129 3130 3130 3131 3132 3133 3133 3132 3132 3131 3129 3128 3130 3135 3138 3139 3140 3141 3142 3142 3142 3143 3145 3145 3144 3143 3143 3144 3143 3143 3143 3143 3142 3141 3141 3141 3140 3140 3140 3140
3032 3035 3038 3042 3046 3048 3050 3052 3054 3056 3057 3060 3063 3067 3069 3072 3076 3081 3084 3085 3088 3092 3096 3099 3102 3105 3106 3107 3108 3110 3111 3113 3115 3116 3117 3118 3119 3120 3121 3122 3122 3123 3123 3123 3124 3125 3125 3126 3127 3128 3128 3128 3128 3128 3127 3126 3125 3126 3130 3133 3135 3135 3136 3138 3140 3140 3139 3139 3139 3138 3138 3138 3138 3138 3138 3138 3138 3137 3137 3137 3137 3136 3136 3135 3135
3027 3028 3032 3036 3040 3043 3045 3047 3049 3051 3054 3057 3061 3064 3066 3068 3072 3077 3081 3083 3084 3088 3093 3096 3098 3100 3101 3102 3103 3105 3107 3109 3110 3112 3113 3114 3115 3116 3117 3118 3118 3119 3119 3119 3120 3120 3121 3122 3122 3123 3123 3124 3124 3123 3123 3122 3122 3122 3125 3128 3130 3131 3132 3133 3135 3136 3135 3134 3134 3134 3133 3133 3133 3133 3133 3133 3133 3133 3133 3133 3133 3132 3132 3131 3131
3023 3025 3030 3033 3036 3038 3040 3041 3044 3046 3049 3053 3057 3060 3062 3065 3067 3071 3077 3080 3083 3085 3089 3092 3093 3095 3096 3097 3099 3101 3103 3104 3106 3107 3108 3109 3111 3112 3113 3114 3115 3115 3115 3116 3116 3116 3117 3117 3118 3118 3118 3119 3119 3119 3119 3118 3119 3119 3120 3122 3125 3128 3129 3129 3129 3129 3128 3128 3129 3129 3129 3129 3129 3128 3127 3127 3128 3128 3129 3129 3129 3129 3128 3128 3128
3020 3024 3029 3031 3032 3034 3036 3037 3039 3042 3045 3049 3052 3054 3057 3060 3062 3066 3071 3077 3080 3081 3084 3087 3089 3090 3091 3093 3095 3097 3098 3100 3101 3102 3103 3105 3106 3107 3109 3110 3111 3111 3112 3112 3112 3112 3112 3113 3113 3113 3114 3115 3115 3115 3115 3115 3116 3117 3117 3117 3119 3122 3124 3125 3125 3123 3123 3123 3124 3125 3125 3125 3124 3124 3123 3123 3123 3124 3124 3125 3125 3126 3125 3125 3124
3018 3021 3025 3026 3026 3029 3031 3033 3035 3039 3041 3044 3047 3049 3050 3054 3058 3061 3066 3070 3074 3075 3078 3081 3083 3085 3086 3088 3090 3092 3094 3095 3096 3098 3099 3100 3102 3103 3104 3106 3107 3107 3108 3108 3108 3108 3108 3108 3109 3109 3110 3111 3111 3111 3111 3111 3112 3113 3113 3114 3114 3115 3117 3119 3121 3120 3120 3121 3121 3120 3120 3120 3120 3119 3119 3119 3120 3120 3120 3121 3122 3123 3122 3122 3121
3014 3017 3021 3022 3024 3026 3028 3029 3032 3034 3036 3038 3041 3043 3044 3049 3054 3057 3059 3062 3066 3068 3071 3074 3078 3080 3082 3084 3086 3087 3089 3090 3092 3093 3095 3096 3097 3099 3100 3101 3102 3103 3103 3103 3104 3104 3104 3104 3104 3105 3106 3107 3107 3107 3107 3108 3109 3109 3109 3110 3111 3111 3112 3114 3115 3116 3116 3116 3116 3116 3116 3116 3115 3114 3114 3115 3116 3116 3116 3117 3118 3118 3118 3118 3118
3012 3015 3018 3021 3023 3025 3027 3027 3028 3030 3032 3033 3036 3038 3040 3043 3047 3050 3054 3057 3061 3064 3067 3070 3073 3075 3078 3080 3081 3083 3085 3086 3087 3089 3090 3092 3093 3094 3095 3096 3097 3098 3098 3098 3099 3099 3099 3100 3100 3101 3102 3103 3103 3103 3103 3104 3105 3106 3106 3107 3107 3107 3108 3109 3110 3110 3110 3110 3111 3111 3112 3112 3111 3111 3111 3112 3112 3112 3112 3112 3113 3113 3114 3114 3114
3014 3014 3015 3018 3021 3023 3025 3025 3025 3028 3031 3032 3033 3035 3037 3040 3043 3047 3052 3056 3059 3061 3063 3066 3068 3071 3073 3075 3077 3078 3080 3082 3083 3084 3086 3087 3088 3089 3090 3091 3092 3092 3093 3094 3094 3095 3095 3096 3096 3096 3097 3098 3099 3099 3100 3100 3101 3102 3103 3103 3103 3103 3104 3104 3105 3104 3104 3105 3106 3106 3107 3108 3108 3108 3108 3108 3108 3108 3108 3108 3108 3109 3109 3109 3109
3015 3014 3014 3015 3017 3020 3023 3024 3026 3028 3031 3031 3031 3033 3036 3040 3044 3048 3052 3055 3056 3058 3060 3062 3064 3067 3069 3071 3072 3074 3076 3077 3079 3080 3081 3082 3083 3084 3085 3086 3087 3087 3088 3089 3090 3090 3091 3091 3091 3091 3092 3094 3095 3095 3096 3096 3097 3098 3098 3099 3099 3099 3099 3100 3101 3101 3101 3101 3102 3102 3103 3103 3104 3104 3104 3104 3104 3104 3104 3105 3105 3105 3105 3105 3104
3015 3014 3014 3015 3016 3018 3021 3024 3026 3029 3031 3032 3033 3035 3037 3040 3044 3048 3050 3052 3053 3055 3057 3059 3062 3064 3066 3067 3068 3070 3071 3072 3074 3075 3076 3077 3078 3079 3080 3082 3082 3083 3083 3084 3085 3086 3086 3086 3086 3087 3088 3089 3090 3091 3091 3092 3092 3093 3094 3094 3094 3094 3095 3095 3096 3097 3097 3097 3097 3098 3098 3099 3099 3100 3100 3100 3100 3100 3100 3100 3101 3101 3101 3100 3099
3016 3015 3016 3016 3017 3018 3020 3022 3024 3027 3030 3032 3033 3035 3035 3036 3039 3042 3045 3048 3050 3052 3054 3056 3058 3060 3061 3062 3064 3065 3066 3067 3069 3070 3072 3073 3074 3075 3076 3077 3078 3078 3079 3080 3080 3081 3081 3082 3083 3084 3084 3085 3085 3086 3086 3087 3087 3088 3089 3089 3090 3090 3090 3091 3091 3092 3092 3093 3093 3094 3094 3095 3095 3095 3095 3095 3095 3095 3095 3096 3096 3096 3095 3095 3094
3017 3017 3017 3017 3018 3018 3020 3021 3022 3024 3027 3029 3031 3032 3033 3034 3036 3038 3041 3044 3046 3048 3050 3052 3054 3056 3057 3058 3060 3061 3062 3064 3065 3067 3068 3070 3071 3072 3072 3073 3073 3073 3074 3075 3076 3077 3077 3078 3079 3079 3080 3080 3081 3082 3082 3083 3083 3084 3085 3085 3086 3086 3087 3087 3087 3087 3088 3088 3089 3089 3090 3090 3090 3090 3090 3091 3091 3091 3091 3091 3091 3090 3090 3089 3088